Graham, TX

9:10 AM CDT on August 20, 2017 (GMT -0500)
Graham

Weather History for KRPH - April, 2014

Change the Weather History Date:

Sunday, April 20, 2014

  Actual Average (KMWL) Record (KMWL)
Temperature  
Mean Temperature 70 °F -  
Max Temperature 77 °F 75 °F 91 °F (1997)
Min Temperature 63 °F 53 °F 39 °F (2013)
Cooling Degree Days 4    
Growing Degree Days 20 (Base 50)    
Moisture  
Dew Point 57 °F    
Average Humidity 76    
Maximum Humidity 96    
Minimum Humidity 43    
Precipitation  
Precipitation 0.54 in - - ()
Sea Level Pressure  
Sea Level Pressure 30.05 in    
Wind  
Wind Speed 7 mph (SE)    
Max Wind Speed 14 mph    
Max Gust Speed 20 mph    
Visibility 8 miles    
Events Rain    
Averages and records for this station are not official NWS values.
T = Trace of Precipitation, MM = Missing Value Source: NWS Daily Summary

Daily Weather History Graph

Daily Weather History Graph

Search for Another Location

Airport or City:

Trip Planner

Search our weather history database for the weather conditions in past years. The results will help you decide how hot, cold, wet, or windy it might be!

Date:

Astronomy

Apr. 20, 2014 Rise Set
Actual Time 6:58 AM CDT 8:08 PM CDT
Civil Twilight 6:32 AM CDT 8:34 PM CDT
Nautical Twilight 6:02 AM CDT 9:04 PM CDT
Astronomical Twilight 5:30 AM CDT 9:36 PM CDT
Moon 12:43 AM CDT 11:26 AM CDT
Length of Visible Light 14h 01m
Length of Day
13h 10m
Waning Gibbous, 68% of the Moon is Illuminated
Apr 20
Waning Gibbous
Apr 22
Last Quarter
Apr 29
New
May 6
First Quarter
May 14
Full

Hourly Weather History & Observations

Time (CDT) Temp. Dew Point Humidity Pressure Visibility Wind Dir Wind Speed Gust Speed Precip Events Conditions
12:15 AM 66.2 °F 52.3 °F 61% 30.11 in 10.0 mi SE 5.8 mph - N/A   Clear
12:35 AM 65.1 °F 54.0 °F 67% 30.11 in 10.0 mi SE 5.8 mph - N/A Rain Light Rain
12:55 AM 63.3 °F 54.7 °F 73% 30.10 in 10.0 mi ESE 6.9 mph - N/A   Scattered Clouds
1:15 AM 63.1 °F 54.5 °F 73% 30.10 in 10.0 mi SE 5.8 mph - N/A   Clear
1:35 AM 63.5 °F 54.0 °F 71% 30.09 in 10.0 mi SE 5.8 mph - N/A   Scattered Clouds
1:55 AM 63.9 °F 54.0 °F 70% 30.09 in 10.0 mi SE 6.9 mph - N/A   Scattered Clouds
2:15 AM 63.7 °F 53.6 °F 70% 30.04 in 10.0 mi East 8.1 mph - N/A   Scattered Clouds
2:35 AM 63.5 °F 53.6 °F 70% 30.04 in 10.0 mi ESE 8.1 mph - N/A   Scattered Clouds
2:55 AM 63.5 °F 53.6 °F 70% 30.04 in 10.0 mi SE 9.2 mph - N/A   Scattered Clouds
3:15 AM 63.5 °F 53.6 °F 70% 30.03 in 10.0 mi SE 11.5 mph - N/A   Scattered Clouds
3:35 AM 63.7 °F 53.6 °F 70% 30.04 in 10.0 mi SE 10.4 mph 17.3 mph N/A   Scattered Clouds
3:55 AM 63.9 °F 53.6 °F 69% 30.04 in 10.0 mi SSE 9.2 mph - N/A   Clear
4:15 AM 63.9 °F 53.6 °F 69% 30.04 in 10.0 mi SE 6.9 mph - N/A   Clear
4:35 AM 63.9 °F 53.6 °F 69% 30.05 in 10.0 mi SSE 5.8 mph - N/A   Clear
4:55 AM 63.7 °F 53.8 °F 70% 30.06 in 10.0 mi SSE 4.6 mph - N/A   Clear
5:15 AM 63.9 °F 54.0 °F 70% 30.06 in 10.0 mi SSE 5.8 mph - N/A   Scattered Clouds
5:55 AM 63.5 °F 54.5 °F 72% 30.07 in 10.0 mi SSE 5.8 mph - N/A   Scattered Clouds
6:15 AM 63.5 °F 54.5 °F 72% 30.06 in 10.0 mi SE 5.8 mph - N/A Rain Light Rain
6:35 AM 63.1 °F 54.7 °F 74% 30.06 in 10.0 mi SE 5.8 mph - N/A   Overcast
6:55 AM 63.3 °F 54.7 °F 73% 30.06 in 10.0 mi SE 6.9 mph - N/A   Overcast
7:15 AM 63.1 °F 54.7 °F 74% 30.06 in 10.0 mi SE 6.9 mph - N/A   Overcast
7:35 AM 63.3 °F 54.7 °F 73% 30.05 in 10.0 mi ESE 6.9 mph - N/A   Overcast
7:55 AM 63.1 °F 54.7 °F 74% 30.05 in 10.0 mi ESE 4.6 mph - N/A   Scattered Clouds
8:15 AM 63.7 °F 54.7 °F 72% 30.05 in 10.0 mi East 4.6 mph - N/A   Clear
8:35 AM 64.2 °F 54.9 °F 72% 30.06 in 10.0 mi East 5.8 mph - N/A   Clear
8:55 AM 65.1 °F 55.4 °F 71% 30.08 in 10.0 mi SE 9.2 mph - N/A Rain Light Rain
9:15 AM 66.2 °F 55.4 °F 68% 30.08 in 10.0 mi SE 10.4 mph - N/A   Scattered Clouds
9:35 AM 65.7 °F 55.0 °F 69% 30.09 in 10.0 mi SSE 10.4 mph - N/A   Mostly Cloudy
9:55 AM 66.0 °F 54.9 °F 67% 30.11 in 10.0 mi SSW 6.9 mph - N/A   Overcast
10:15 AM 66.7 °F 54.5 °F 65% 30.11 in 10.0 mi SSW 5.8 mph - N/A   Overcast
10:35 AM 69.4 °F 54.5 °F 59% 30.10 in 10.0 mi South 8.1 mph - N/A   Mostly Cloudy
10:55 AM 71.8 °F 53.8 °F 53% 30.10 in 10.0 mi South 10.4 mph 17.3 mph N/A   Mostly Cloudy
11:15 AM 74.8 °F 53.1 °F 47% 30.09 in 10.0 mi SSE 13.8 mph 18.4 mph N/A   Mostly Cloudy
11:35 AM 75.0 °F 51.4 °F 44% 30.09 in 10.0 mi South 8.1 mph 17.3 mph N/A   Mostly Cloudy
11:55 AM 75.0 °F 51.8 °F 44% 30.08 in 10.0 mi South 12.7 mph 19.6 mph N/A   Mostly Cloudy
12:15 PM 76.3 °F 52.2 °F 43% 30.08 in 10.0 mi South 10.4 mph 16.1 mph N/A   Mostly Cloudy
12:35 PM 75.9 °F 52.2 °F 43% 30.07 in 10.0 mi South 6.9 mph - N/A   Mostly Cloudy
12:55 PM 76.5 °F 52.2 °F 43% 30.06 in 10.0 mi South 10.4 mph 17.3 mph N/A   Mostly Cloudy
1:15 PM 75.7 °F 52.3 °F 44% 30.04 in 10.0 mi SSE 9.2 mph 16.1 mph N/A   Mostly Cloudy
1:35 PM 74.7 °F 53.1 °F 47% 30.04 in 10.0 mi SE 9.2 mph 16.1 mph N/A   Mostly Cloudy
1:55 PM 72.3 °F 55.0 °F 54% 30.03 in 10.0 mi SE 6.9 mph - N/A   Mostly Cloudy
2:15 PM 69.8 °F 57.9 °F 66% 30.04 in 10.0 mi South 5.8 mph - 0.01 in Rain Rain
2:35 PM 66.4 °F 60.6 °F 82% 30.06 in 3.0 mi SSW 5.8 mph - 0.07 in Rain Heavy Rain
2:55 PM 65.7 °F 61.3 °F 86% 30.06 in 7.0 mi WNW 3.5 mph - 0.11 in Rain Rain
3:15 PM 64.8 °F 61.2 °F 88% 30.05 in 5.0 mi Calm Calm - 0.04 in Rain Light Rain
3:35 PM 64.6 °F 61.7 °F 90% 30.05 in 10.0 mi NNW 4.6 mph - 0.05 in Rain Light Rain
3:55 PM 64.4 °F 61.7 °F 91% 30.05 in 4.0 mi WNW 3.5 mph - 0.07 in Rain Rain
4:15 PM 64.2 °F 61.5 °F 91% 30.04 in 7.0 mi NW 3.5 mph - 0.02 in Rain Light Rain
4:35 PM 64.4 °F 61.9 °F 92% 30.03 in 5.0 mi Calm Calm - 0.03 in Rain Rain
4:55 PM 64.4 °F 62.1 °F 92% 30.03 in 3.0 mi East 3.5 mph - 0.08 in Rain Rain
5:15 PM 63.9 °F 61.7 °F 93% 30.02 in 3.0 mi East 3.5 mph - 0.04 in Rain Rain
5:35 PM 63.7 °F 61.7 °F 93% 30.02 in 5.0 mi Calm Calm - 0.05 in   Light Drizzle
5:55 PM 63.7 °F 62.1 °F 94% 30.02 in 4.0 mi Calm Calm - 0.09 in Rain Rain
6:15 PM 64.4 °F 63.0 °F 95% 30.03 in 2.0 mi ESE 5.8 mph - 0.08 in Rain Heavy Rain
6:35 PM 64.4 °F 62.8 °F 94% 30.02 in 4.0 mi ESE 5.8 mph - 0.13 in Rain Rain
6:55 PM 64.4 °F 62.8 °F 94% 30.02 in 4.0 mi ESE 4.6 mph - 0.14 in Rain Light Rain
7:15 PM 64.4 °F 62.6 °F 94% 30.02 in 5.0 mi ESE 4.6 mph - 0.01 in   Drizzle
7:35 PM 63.9 °F 62.2 °F 94% 30.01 in 3.0 mi ESE 5.8 mph - 0.01 in   Drizzle
8:15 PM 63.5 °F 62.1 °F 95% 30.01 in 4.0 mi East 4.6 mph - 0.01 in   Drizzle
8:35 PM 63.5 °F 61.9 °F 94% 30.01 in 5.0 mi East 3.5 mph - 0.01 in   Overcast
8:55 PM 63.1 °F 61.7 °F 95% 30.02 in 5.0 mi East 6.9 mph - 0.01 in Rain Light Rain
9:15 PM 63.0 °F 61.7 °F 96% 30.02 in 4.0 mi ESE 5.8 mph - 0.02 in Rain Light Rain
9:35 PM 63.1 °F 61.7 °F 95% 30.02 in 7.0 mi ESE 4.6 mph - 0.03 in Rain Light Rain
9:55 PM 63.1 °F 61.7 °F 95% 30.03 in 7.0 mi ESE 6.9 mph - 0.03 in   Overcast
10:15 PM 63.1 °F 61.7 °F 95% 30.03 in 5.0 mi ESE 6.9 mph - N/A   Overcast
10:35 PM 63.1 °F 61.7 °F 95% 30.02 in 10.0 mi SE 8.1 mph - N/A   Overcast
10:55 PM 63.5 °F 61.9 °F 94% 30.01 in 7.0 mi ESE 5.8 mph - N/A   Overcast
11:15 PM 63.5 °F 62.1 °F 95% 30.01 in 7.0 mi ESE 6.9 mph - N/A   Overcast
11:35 PM 63.7 °F 62.2 °F 95% 30.00 in 7.0 mi SE 8.1 mph - N/A   Overcast
11:55 PM 63.7 °F 62.4 °F 96% 30.00 in 5.0 mi SE 5.8 mph - N/A   Overcast